SDG094 LIEE-LIML

Flight info

Callsign SDG094
Flight time 1h 20m
Altitude 30000
Route KOVAS DCT DEXUL DCT GIGGI DCT UPDUT DCT CORSI DCT OKROK DCT AKUTI DCT TORTU DCT ERTEV DCT OLETI DCT ITCAP
Aircraft A320/M-SDE3FGHIRWY/LB1

Departure

Time 2026-04-28 22:08
Airport Cagliari Elmas Airport (LIEE)

Arrival

Time 2026-04-28 23:29
Airport Milano Linate Airport (LIML)
Time Latitude Longitude Altitude Speed Heading
2026-04-28 21:45 39.25264 9.05978 15 ft 0 kts 321°
2026-04-28 21:58 39.25264 9.05979 15 ft 1 kts 321°
2026-04-28 21:58 39.25244 9.05999 17 ft 4 kts 322°
2026-04-28 21:59 39.25223 9.06020 17 ft 4 kts 316°
2026-04-28 21:59 39.25215 9.06041 16 ft 4 kts 238°
2026-04-28 21:59 39.25226 9.06061 17 ft 2 kts 232°
2026-04-28 22:00 39.25228 9.06063 15 ft 0 kts 232°
2026-04-28 22:02 39.25214 9.06041 16 ft 10 kts 232°
2026-04-28 22:02 39.25160 9.05952 15 ft 13 kts 232°
2026-04-28 22:02 39.25173 9.05857 15 ft 12 kts 316°
2026-04-28 22:03 39.25238 9.05783 15 ft 12 kts 319°
2026-04-28 22:03 39.25303 9.05708 15 ft 15 kts 318°
2026-04-28 22:03 39.25382 9.05594 15 ft 17 kts 296°
2026-04-28 22:03 39.25410 9.05457 17 ft 15 kts 286°
2026-04-28 22:04 39.25456 9.05351 15 ft 13 kts 309°
2026-04-28 22:04 39.25517 9.05275 15 ft 11 kts 318°
2026-04-28 22:04 39.25572 9.05212 15 ft 10 kts 318°
2026-04-28 22:04 39.25620 9.05156 15 ft 9 kts 318°
2026-04-28 22:05 39.25682 9.05084 15 ft 15 kts 318°
2026-04-28 22:05 39.25756 9.04998 15 ft 13 kts 318°
2026-04-28 22:05 39.25831 9.04911 15 ft 18 kts 318°
2026-04-28 22:05 39.25936 9.04790 15 ft 20 kts 318°
2026-04-28 22:06 39.26035 9.04676 15 ft 18 kts 318°
2026-04-28 22:06 39.26114 9.04563 15 ft 16 kts 292°
2026-04-28 22:06 39.26116 9.04433 15 ft 14 kts 245°
2026-04-28 22:06 39.26033 9.04405 14 ft 15 kts 150°
2026-04-28 22:07 39.25952 9.04495 14 ft 16 kts 138°
2026-04-28 22:07 39.25942 9.04506 14 ft 0 kts 138°
2026-04-28 22:07 39.25838 9.04627 16 ft 55 kts 138°
2026-04-28 22:07 39.25385 9.05153 15 ft 118 kts 138°
2026-04-28 22:08 39.24647 9.05996 113 ft 155 kts 138°
2026-04-28 22:08 39.23846 9.06915 642 ft 156 kts 140°
2026-04-28 22:08 39.23028 9.07840 1283 ft 156 kts 136°
2026-04-28 22:08 39.22200 9.08794 1780 ft 169 kts 136°
2026-04-28 22:09 39.21266 9.09882 2076 ft 194 kts 136°
2026-04-28 22:09 39.20578 9.10687 2331 ft 207 kts 137°
2026-04-28 22:09 39.19081 9.12340 3284 ft 216 kts 150°
2026-04-28 22:09 39.18133 9.12734 3761 ft 220 kts 177°
2026-04-28 22:10 39.16666 9.12179 4513 ft 228 kts 213°
2026-04-28 22:10 39.15483 9.10811 5346 ft 230 kts 225°
2026-04-28 22:10 39.14441 9.09232 6198 ft 232 kts 230°
2026-04-28 22:10 39.13657 9.07420 7021 ft 235 kts 255°
2026-04-28 22:11 39.13652 9.05311 7866 ft 242 kts 280°
2026-04-28 22:11 39.14480 9.03303 8289 ft 273 kts 310°
2026-04-28 22:11 39.15905 9.01608 8979 ft 282 kts 314°
2026-04-28 22:11 39.17375 8.99927 9859 ft 283 kts 315°
2026-04-28 22:12 39.18858 8.98238 10653 ft 285 kts 314°
2026-04-28 22:12 39.20831 8.95977 11717 ft 288 kts 315°
2026-04-28 22:12 39.21869 8.94851 12252 ft 284 kts 321°
2026-04-28 22:12 39.23525 8.93613 12860 ft 271 kts 334°
2026-04-28 22:13 39.25325 8.92941 13208 ft 272 kts 349°
2026-04-28 22:13 39.27217 8.92764 13440 ft 273 kts 354°
2026-04-28 22:13 39.29097 8.92616 13632 ft 276 kts 353°
2026-04-28 22:13 39.31010 8.92458 13900 ft 275 kts 353°
2026-04-28 22:14 39.32922 8.92300 14136 ft 276 kts 353°
2026-04-28 22:14 39.34837 8.92149 14346 ft 276 kts 354°
2026-04-28 22:14 39.36760 8.92000 14562 ft 277 kts 354°
2026-04-28 22:14 39.38690 8.91854 14797 ft 278 kts 354°
2026-04-28 22:15 39.40630 8.91844 15008 ft 281 kts
2026-04-28 22:15 39.42568 8.92219 15216 ft 284 kts 10°
2026-04-28 22:15 39.44475 8.92930 15434 ft 286 kts 18°
2026-04-28 22:15 39.46300 8.93964 15665 ft 287 kts 26°
2026-04-28 22:16 39.48058 8.95201 15826 ft 288 kts 26°
2026-04-28 22:16 39.49819 8.96414 15950 ft 285 kts 26°
2026-04-28 22:16 39.51544 8.97596 16069 ft 275 kts 26°
2026-04-28 22:16 39.53278 8.98831 16216 ft 295 kts 27°
2026-04-28 22:17 39.55131 9.00197 16338 ft 317 kts 27°
2026-04-28 22:17 39.57108 9.01660 16471 ft 337 kts 27°
2026-04-28 22:17 39.59210 9.03202 16602 ft 357 kts 27°
2026-04-28 22:17 39.61428 9.04813 16733 ft 375 kts 27°
2026-04-28 22:18 39.63784 9.06438 16868 ft 391 kts 22°
2026-04-28 22:18 39.66376 9.07673 17096 ft 402 kts 13°
2026-04-28 22:18 39.69073 9.08561 17566 ft 407 kts 12°
2026-04-28 22:18 39.71833 9.09473 18108 ft 411 kts 13°
2026-04-28 22:19 39.74616 9.10402 18603 ft 415 kts 13°
2026-04-28 22:19 39.77424 9.11346 19083 ft 418 kts 13°
2026-04-28 22:19 39.80251 9.12306 19557 ft 421 kts 13°
2026-04-28 22:19 39.83096 9.13277 20030 ft 424 kts 13°
2026-04-28 22:20 39.85984 9.14114 20486 ft 426 kts
2026-04-28 22:20 39.88943 9.14399 20940 ft 427 kts
2026-04-28 22:20 39.91925 9.14542 21367 ft 431 kts
2026-04-28 22:20 39.94933 9.14690 21785 ft 434 kts
2026-04-28 22:21 39.97960 9.14844 22212 ft 437 kts
2026-04-28 22:21 40.01010 9.15003 22612 ft 440 kts
2026-04-28 22:21 40.04075 9.15163 22999 ft 442 kts
2026-04-28 22:21 40.07157 9.15326 23385 ft 445 kts
2026-04-28 22:22 40.10259 9.15489 23724 ft 447 kts
2026-04-28 22:22 40.13377 9.15649 24051 ft 450 kts
2026-04-28 22:22 40.16508 9.15810 24379 ft 451 kts
2026-04-28 22:22 40.19655 9.15974 24697 ft 453 kts
2026-04-28 22:23 40.22815 9.16138 25016 ft 455 kts
2026-04-28 22:23 40.25979 9.16015 25322 ft 455 kts 352°
2026-04-28 22:23 40.29093 9.15280 25634 ft 455 kts 345°
2026-04-28 22:23 40.32174 9.14306 25910 ft 457 kts 345°
2026-04-28 22:24 40.35278 9.13333 26201 ft 459 kts 345°
2026-04-28 22:24 40.38387 9.12361 26477 ft 460 kts 345°
2026-04-28 22:24 40.41513 9.11385 26745 ft 462 kts 345°
2026-04-28 22:24 40.44642 9.10408 27003 ft 463 kts 345°
2026-04-28 22:25 40.47784 9.09425 27249 ft 465 kts 345°
2026-04-28 22:25 40.50938 9.08436 27484 ft 467 kts 345°
2026-04-28 22:25 40.54108 9.07438 27700 ft 469 kts 345°
2026-04-28 22:25 40.57280 9.06440 27929 ft 470 kts 345°
2026-04-28 22:26 40.60421 9.05454 28198 ft 470 kts 345°
2026-04-28 22:26 40.63595 9.04457 28536 ft 469 kts 345°
2026-04-28 22:26 40.66769 9.03457 28862 ft 468 kts 345°
2026-04-28 22:26 40.69923 9.02457 29196 ft 467 kts 345°
2026-04-28 22:27 40.73079 9.01449 29528 ft 465 kts 345°
2026-04-28 22:27 40.76223 9.00443 29860 ft 464 kts 345°
2026-04-28 22:27 40.79364 8.99440 30013 ft 464 kts 345°
2026-04-28 22:28 40.85642 8.97446 30019 ft 464 kts 345°
2026-04-28 22:28 40.91920 8.95458 30016 ft 464 kts 345°
2026-04-28 22:29 40.98205 8.93448 30006 ft 464 kts 345°
2026-04-28 22:29 41.04435 8.91457 30004 ft 464 kts 345°
2026-04-28 22:30 41.10710 8.89448 30004 ft 463 kts 345°
2026-04-28 22:30 41.16977 8.87437 30002 ft 463 kts 345°
2026-04-28 22:31 41.23243 8.85416 30004 ft 463 kts 345°
2026-04-28 22:31 41.29462 8.83161 30000 ft 463 kts 342°
2026-04-28 22:32 41.35787 8.81449 29994 ft 467 kts 355°
2026-04-28 22:32 41.42294 8.81607 29991 ft 468 kts
2026-04-28 22:33 41.48804 8.82006 30016 ft 468 kts
2026-04-28 22:33 41.55309 8.82404 30021 ft 468 kts
2026-04-28 22:34 41.61811 8.82752 30019 ft 468 kts
2026-04-28 22:34 41.68313 8.83083 30026 ft 467 kts
2026-04-28 22:35 41.74813 8.83425 30030 ft 467 kts
2026-04-28 22:35 41.81308 8.83774 30029 ft 467 kts
2026-04-28 22:36 41.87757 8.84116 30035 ft 467 kts
2026-04-28 22:36 41.94245 8.84455 30034 ft 467 kts
2026-04-28 22:37 42.00736 8.84796 30031 ft 466 kts
2026-04-28 22:37 42.07217 8.85149 30034 ft 466 kts
2026-04-28 22:38 42.13698 8.85510 30031 ft 466 kts
2026-04-28 22:38 42.20189 8.85859 30027 ft 466 kts
2026-04-28 22:39 42.26669 8.86205 30020 ft 466 kts
2026-04-28 22:39 42.33156 8.86554 30013 ft 466 kts
2026-04-28 22:40 42.39636 8.86902 30005 ft 466 kts
2026-04-28 22:40 42.46078 8.87251 29999 ft 466 kts
2026-04-28 22:41 42.52601 8.87603 29997 ft 466 kts
2026-04-28 22:41 42.59074 8.87955 29996 ft 466 kts
2026-04-28 22:42 42.65512 8.88301 30003 ft 466 kts
2026-04-28 22:42 42.71989 8.88661 30006 ft 466 kts
2026-04-28 22:43 42.78467 8.89019 30009 ft 466 kts
2026-04-28 22:43 42.84987 8.89484 30015 ft 466 kts
2026-04-28 22:44 42.91415 8.90268 30025 ft 467 kts
2026-04-28 22:44 42.97881 8.91132 30024 ft 467 kts
2026-04-28 22:45 43.04358 8.91921 30023 ft 467 kts
2026-04-28 22:45 43.10838 8.92643 30029 ft 467 kts
2026-04-28 22:46 43.17321 8.93374 30033 ft 467 kts
2026-04-28 22:46 43.23807 8.94139 30027 ft 467 kts
2026-04-28 22:47 43.30286 8.94888 30042 ft 467 kts
2026-04-28 22:47 43.36767 8.95610 30042 ft 467 kts
2026-04-28 22:48 43.43249 8.96065 30043 ft 466 kts 358°
2026-04-28 22:48 43.49715 8.95992 30048 ft 465 kts 356°
2026-04-28 22:49 43.56187 8.95838 30047 ft 465 kts 357°
2026-04-28 22:49 43.62623 8.95797 30044 ft 466 kts 359°
2026-04-28 22:50 43.69071 8.97050 30055 ft 469 kts
2026-04-28 22:50 43.75453 8.99036 30056 ft 470 kts 11°
2026-04-28 22:51 43.81835 9.00971 30051 ft 468 kts
2026-04-28 22:51 43.88310 9.01789 30063 ft 467 kts
2026-04-28 22:52 43.94789 9.02523 29798 ft 467 kts
2026-04-28 22:52 43.98020 9.02890 29268 ft 466 kts
2026-04-28 22:52 44.01278 9.03266 27948 ft 472 kts
2026-04-28 22:52 44.04571 9.03654 26711 ft 476 kts
2026-04-28 22:53 44.07885 9.04051 25477 ft 480 kts
2026-04-28 22:53 44.11198 9.04453 24683 ft 475 kts
2026-04-28 22:53 44.14471 9.04853 23861 ft 470 kts
2026-04-28 22:53 44.17714 9.05248 22976 ft 466 kts
2026-04-28 22:54 44.20923 9.05638 22226 ft 459 kts
2026-04-28 22:54 44.24041 9.06013 21501 ft 454 kts
2026-04-28 22:54 44.27169 9.06386 20805 ft 449 kts
2026-04-28 22:54 44.30268 9.06757 20096 ft 445 kts
2026-04-28 22:55 44.33339 9.07129 19418 ft 441 kts
2026-04-28 22:55 44.36385 9.07499 18762 ft 437 kts
2026-04-28 22:55 44.39409 9.07868 18096 ft 434 kts
2026-04-28 22:55 44.42396 9.08277 17469 ft 429 kts
2026-04-28 22:56 44.45308 9.09099 16914 ft 424 kts 10°
2026-04-28 22:56 44.48164 9.09971 16561 ft 414 kts 11°
2026-04-28 22:56 44.50936 9.10819 16431 ft 400 kts 11°
2026-04-28 22:56 44.53605 9.11634 16301 ft 386 kts 11°
2026-04-28 22:57 44.56185 9.12420 16173 ft 373 kts 10°
2026-04-28 22:57 44.58683 9.13181 16047 ft 361 kts 10°
2026-04-28 22:57 44.61100 9.13919 15922 ft 350 kts 11°
2026-04-28 22:57 44.63446 9.14638 15795 ft 340 kts 11°
2026-04-28 22:58 44.64965 9.15102 15715 ft 333 kts 11°
2026-04-28 22:58 44.67161 9.15773 15581 ft 313 kts 10°
2026-04-28 22:58 44.69252 9.16412 15243 ft 303 kts 11°
2026-04-28 22:58 44.71306 9.17038 14927 ft 301 kts 11°
2026-04-28 22:59 44.74001 9.17861 14583 ft 298 kts 11°
2026-04-28 22:59 44.75375 9.18283 14331 ft 300 kts 11°
2026-04-28 22:59 44.77408 9.18910 14061 ft 298 kts 11°
2026-04-28 22:59 44.79397 9.19770 13702 ft 298 kts 27°
2026-04-28 23:00 44.81044 9.21496 13403 ft 295 kts 49°
2026-04-28 23:00 44.82112 9.23926 13072 ft 292 kts 71°
2026-04-28 23:00 44.82497 9.26673 12731 ft 290 kts 87°
2026-04-28 23:00 44.82647 9.29503 12397 ft 289 kts 87°
2026-04-28 23:01 44.82799 9.32307 12106 ft 286 kts 87°
2026-04-28 23:01 44.82951 9.35083 11850 ft 282 kts 87°
2026-04-28 23:01 44.83100 9.37825 11631 ft 279 kts 87°
2026-04-28 23:01 44.83247 9.40543 11411 ft 278 kts 87°
2026-04-28 23:02 44.83394 9.43244 11194 ft 276 kts 87°
2026-04-28 23:02 44.83539 9.45932 10976 ft 274 kts 86°
2026-04-28 23:02 44.83916 9.48559 10753 ft 275 kts 71°
2026-04-28 23:02 44.84761 9.50968 10534 ft 275 kts 60°
2026-04-28 23:03 44.85746 9.53271 10304 ft 274 kts 60°
2026-04-28 23:03 44.86722 9.55567 10089 ft 272 kts 61°
2026-04-28 23:03 44.87689 9.57851 9881 ft 268 kts 61°
2026-04-28 23:03 44.88779 9.59910 9772 ft 259 kts 43°
2026-04-28 23:04 44.90295 9.61226 9639 ft 258 kts 20°
2026-04-28 23:04 44.93836 9.61423 9193 ft 257 kts 356°
2026-04-28 23:04 44.95613 9.61234 8980 ft 254 kts 356°
2026-04-28 23:05 44.97309 9.60760 8773 ft 246 kts 333°
2026-04-28 23:05 44.98586 9.59266 8568 ft 236 kts 301°
2026-04-28 23:05 44.99134 9.57143 8386 ft 230 kts 271°
2026-04-28 23:05 44.99063 9.54902 8207 ft 229 kts 263°
2026-04-28 23:06 44.98938 9.52659 8027 ft 229 kts 264°
2026-04-28 23:06 44.98816 9.50422 7847 ft 228 kts 263°
2026-04-28 23:06 44.98696 9.48184 7665 ft 229 kts 264°
2026-04-28 23:06 44.98575 9.45940 7482 ft 228 kts 264°
2026-04-28 23:07 44.98454 9.43704 7302 ft 228 kts 264°
2026-04-28 23:07 44.98333 9.41472 7121 ft 228 kts 264°
2026-04-28 23:07 44.98213 9.39276 6944 ft 227 kts 264°
2026-04-28 23:07 44.98092 9.37051 6764 ft 227 kts 265°
2026-04-28 23:08 44.98302 9.34865 6577 ft 227 kts 294°
2026-04-28 23:08 44.99287 9.33152 6395 ft 227 kts 327°
2026-04-28 23:08 45.00751 9.32422 6175 ft 224 kts 356°
2026-04-28 23:08 45.02306 9.32266 5986 ft 224 kts 356°
2026-04-28 23:09 45.03862 9.32104 5807 ft 224 kts 357°
2026-04-28 23:09 45.05406 9.31938 5627 ft 222 kts 357°
2026-04-28 23:09 45.06924 9.31761 5449 ft 216 kts 356°
2026-04-28 23:09 45.08396 9.31580 5278 ft 209 kts 356°
2026-04-28 23:10 45.09820 9.31421 5131 ft 202 kts 357°
2026-04-28 23:10 45.11216 9.31272 4983 ft 200 kts 357°
2026-04-28 23:10 45.12600 9.31125 4837 ft 199 kts 357°
2026-04-28 23:10 45.13985 9.30977 4685 ft 199 kts 357°
2026-04-28 23:11 45.15363 9.30830 4537 ft 198 kts 357°
2026-04-28 23:11 45.16738 9.30684 4385 ft 198 kts 357°
2026-04-28 23:11 45.18111 9.30537 4234 ft 197 kts 357°
2026-04-28 23:11 45.19478 9.30391 4091 ft 197 kts 357°
2026-04-28 23:12 45.20847 9.30245 3947 ft 198 kts 357°
2026-04-28 23:12 45.22219 9.30099 3803 ft 198 kts 357°
2026-04-28 23:12 45.23591 9.29952 3657 ft 198 kts 357°
2026-04-28 23:12 45.24962 9.29805 3512 ft 197 kts 358°
2026-04-28 23:13 45.26328 9.29659 3366 ft 197 kts 358°
2026-04-28 23:13 45.27691 9.29513 3247 ft 195 kts 357°
2026-04-28 23:13 45.29023 9.29370 3111 ft 194 kts 357°
2026-04-28 23:13 45.30386 9.29224 2884 ft 193 kts 357°
2026-04-28 23:14 45.31724 9.29081 2641 ft 192 kts 357°
2026-04-28 23:14 45.33033 9.28941 2431 ft 191 kts 357°
2026-04-28 23:14 45.34345 9.28800 2147 ft 187 kts 357°
2026-04-28 23:14 45.35604 9.28664 1892 ft 176 kts 358°
2026-04-28 23:15 45.36799 9.28535 1676 ft 169 kts 358°
2026-04-28 23:15 45.37964 9.28411 1449 ft 167 kts 358°
2026-04-28 23:15 45.39117 9.28287 1230 ft 165 kts 357°
2026-04-28 23:15 45.40256 9.28165 1037 ft 163 kts 357°
2026-04-28 23:16 45.41388 9.28043 815 ft 163 kts 357°
2026-04-28 23:16 45.42518 9.27935 596 ft 162 kts 355°
2026-04-28 23:16 45.43637 9.27831 401 ft 160 kts 349°
2026-04-28 23:16 45.44678 9.27872 508 ft 135 kts 358°
2026-04-28 23:17 45.45595 9.27669 1242 ft 139 kts 352°
2026-04-28 23:17 45.46575 9.27440 2000 ft 137 kts 354°
2026-04-28 23:17 45.47571 9.27202 2345 ft 159 kts 354°
2026-04-28 23:17 45.48748 9.26918 2481 ft 187 kts 353°
2026-04-28 23:18 45.50121 9.26638 2736 ft 211 kts 355°
2026-04-28 23:18 45.51648 9.26424 2942 ft 228 kts 356°
2026-04-28 23:18 45.53218 9.26585 3006 ft 227 kts 23°
2026-04-28 23:18 45.54475 9.27848 3020 ft 222 kts 53°
2026-04-28 23:19 45.55138 9.29788 3012 ft 218 kts 81°
2026-04-28 23:19 45.55261 9.31939 3012 ft 218 kts 88°
2026-04-28 23:19 45.55335 9.34077 3009 ft 218 kts 88°
2026-04-28 23:19 45.55407 9.36243 3008 ft 219 kts 88°
2026-04-28 23:20 45.55482 9.38404 3093 ft 218 kts 88°
2026-04-28 23:20 45.55559 9.40558 3090 ft 217 kts 89°
2026-04-28 23:20 45.55635 9.42707 3091 ft 216 kts 88°
2026-04-28 23:20 45.55651 9.44846 3086 ft 215 kts 101°
2026-04-28 23:21 45.55072 9.46777 3090 ft 214 kts 129°
2026-04-28 23:21 45.53891 9.48049 3090 ft 216 kts 158°
2026-04-28 23:21 45.52399 9.48314 3090 ft 221 kts 186°
2026-04-28 23:21 45.50941 9.47580 3099 ft 225 kts 201°
2026-04-28 23:22 45.49526 9.46685 3094 ft 225 kts 201°
2026-04-28 23:22 45.48093 9.45781 3091 ft 225 kts 201°
2026-04-28 23:22 45.46662 9.44883 3092 ft 224 kts 201°
2026-04-28 23:22 45.45231 9.43986 3082 ft 224 kts 201°
2026-04-28 23:23 45.43803 9.43092 3077 ft 224 kts 201°
2026-04-28 23:23 45.42378 9.42199 3072 ft 224 kts 201°
2026-04-28 23:23 45.40951 9.41304 3063 ft 223 kts 201°
2026-04-28 23:23 45.39541 9.40420 3059 ft 220 kts 201°
2026-04-28 23:24 45.38136 9.39541 3057 ft 220 kts 202°
2026-04-28 23:24 45.36751 9.38673 3048 ft 220 kts 201°
2026-04-28 23:24 45.35347 9.37794 3043 ft 220 kts 201°
2026-04-28 23:24 45.33943 9.36915 3006 ft 220 kts 201°
2026-04-28 23:25 45.32546 9.36016 3002 ft 221 kts 207°
2026-04-28 23:25 45.31469 9.34519 2997 ft 215 kts 241°
2026-04-28 23:25 45.31110 9.32475 2770 ft 217 kts 273°
2026-04-28 23:25 45.31580 9.30490 2584 ft 211 kts 307°
2026-04-28 23:26 45.32670 9.29207 2431 ft 202 kts 337°
2026-04-28 23:26 45.34009 9.28825 2194 ft 190 kts 357°
2026-04-28 23:26 45.35287 9.28693 1960 ft 178 kts 358°
2026-04-28 23:26 45.36490 9.28567 1732 ft 170 kts 358°
2026-04-28 23:27 45.37663 9.28443 1509 ft 167 kts 358°
2026-04-28 23:27 45.38815 9.28319 1287 ft 165 kts 357°
2026-04-28 23:27 45.39941 9.28198 1091 ft 158 kts 358°
2026-04-28 23:27 45.41026 9.28082 869 ft 155 kts 358°
2026-04-28 23:28 45.42093 9.27967 672 ft 153 kts 356°
2026-04-28 23:28 45.43111 9.27857 466 ft 144 kts 358°
2026-04-28 23:28 45.44094 9.27767 377 ft 136 kts 359°
2026-04-28 23:28 45.44908 9.27672 369 ft 94 kts 355°
2026-04-28 23:29 45.45268 9.27645 366 ft 27 kts
2026-04-28 23:29 45.45429 9.27754 368 ft 22 kts 38°
2026-04-28 23:29 45.45534 9.27809 366 ft 16 kts
2026-04-28 23:29 45.45651 9.27818 368 ft 18 kts 359°
2026-04-28 23:30 45.45781 9.27819 371 ft 20 kts
2026-04-28 23:30 45.45871 9.27822 364 ft 8 kts
2026-04-28 23:30 45.45904 9.27866 369 ft 6 kts 73°
2026-04-28 23:30 45.45923 9.27905 366 ft 4 kts 28°
2026-04-28 23:31 45.45947 9.27906 364 ft 3 kts 358°
2026-04-28 23:31 45.45963 9.27906 364 ft 2 kts
2026-04-28 23:31 45.45973 9.27906 364 ft 1 kts
2026-04-28 23:31 45.45977 9.27906 364 ft 0 kts
2026-04-28 23:32 45.45979 9.27907 364 ft 0 kts